Location: Newark
(22.3060°N, 114.2134°E)
Time: 03:32:48
(UTC+00:00)

Explorer 11/Cluster Stage 4 - Pass Details

Date: 31 July 2021
Orbit: 467 x 1256 km, 28.8° (Epoch: 21 September)

Event Time Altitude Azimuth Distance (km) Brightness Sun altitude
Rises 01:23:13 0° 254° (WSW) 4,043 9.8 46.3°
Reaches altitude 10° 01:25:59 10° 255° (WSW) 3,143 9.4 46.9°
Maximum altitude 01:34:06 81° 342° (NNW) 1,270 8.5 48.8°
Drops below altitude 10° 01:42:16 10° 69° (ENE) 3,154 10.5 50.7°
Sets 01:45:03 0° 71° (ENE) 4,058 10.8 51.3°
